RH
98 92 97 97 99 93 94 96 94 93 97 93 99 96 96 93 92 44 19 15 16 19 28 26 40 92 90 73 60 52 51 54 55 65 62 73 86 79 93 63 61 90 64 65 52 50 46
96 97 96 97 97 96 96 97 94 94 95 96 96 92 93 94 85 40 30 20 16 21 50 50 90 92 83 67 45 46 47 42 45 53 72 61 79 84 71 68 61 59 72 62 57 53 46
92 96 93 94 92 90 95 91 94 92 92 89 87 92 85 94 64 49 42 21 17 18 31 61 77 79 72 62 54 58 58 63 56 86 70 82 77 91 84 68 58 49 73 72 60 53 51
99 99 93 94 92 91 90 93 94 94 93 91 83 71 30 60 50 35 30 24 20 54 39 31 36 58 59 42 49 48 44 57 76 82 77 75 70 95 100 78 58 56 69 91 75 54 49
98 94 94 93 93 96 92 92 91 92 94 92 88 63 24 28 28 26 29 43 57 38 36 26 35 32 35 31 27 29 38 62 69 85 82 67 87 98 97 96 83 71 79 84 86 56 48
94 94 97 98 93 92 92 73 80 92 89 87 84 31 22 26 27 29 47 65 33 40 32 28 28 33 23 24 27 25 40 50 80 79 96 64 95 100 100 97 94 77 98 66 78 77 47
98 98 94 94 88 86 68 53 76 76 84 83 34 23 27 27 28 49 58 59 62 42 57 60 54 47 23 26 24 26 32 45 58 72 100 53 98 95 89 99 63 67 62 75 74 49 50
93 85 76 80 90 74 40 32 42 66 66 38 22 21 27 24 28 53 49 50 67 81 88 40 52 23 25 26 23 24 28 42 52 72 66 97 88 66 64 68 95 59 62 56 42 43 40
67 54 87 63 54 16 16 18 16 39 17 20 18 22 28 24 30 50 50 58 77 89 81 53 23 22 26 26 22 22 30 40 51 67 82 95 62 47 85 79 100 93 54 49 46 32 30
54 47 48 50 33 8 10 12 11 8 7 12 18 23 28 27 42 49 50 63 69 90 81 20 25 25 26 25 24 20 38 40 42 81 84 83 47 58 58 94 92 98 53 36 40 41 50
41 27 20 8 11 9 10 11 13 6 8 10 20 26 28 47 55 48 50 66 60 92 78 25 27 28 30 28 26 26 39 40 56 53 63 62 62 62 54 71 64 98 65 47 44 43 64
24 30 21 19 13 12 13 13 12 6 6 8 19 30 34 40 27 27 38 69 88 52 59 30 38 41 40 30 31 26 36 42 41 49 40 43 54 89 65 44 52 55 98 81 54 54 96
26 29 41 53 37 44 18 12 11 7 5 6 13 28 41 45 42 32 34 59 50 64 31 43 52 40 37 38 35 33 46 70 79 86 66 49 45 71 74 56 51 80 94 97 97 96 94
20 23 48 76 90 71 37 18 12 10 6 6 13 23 44 36 32 32 33 35 65 44 54 44 44 40 40 40 42 44 44 72 65 72 84 83 90 93 74 95 70 95 86 93 95 93 86
18 32 52 82 72 60 61 63 22 13 8 7 11 28 49 36 39 33 37 70 56 59 54 54 47 55 60 51 51 52 54 84 76 72 95 95 61 40 86 100 76 78 97 75 70 48 64
29 56 71 79 65 78 77 76 63 19 10 8 23 56 38 37 39 36 51 54 55 42 46 46 65 70 92 64 72 69 67 70 77 66 74 84 89 40 51 77 87 87 56 95 98 70 56
38 59 100 97 77 96 94 72 65 69 17 13 48 66 35 41 37 42 76 76 50 40 41 52 64 71 70 82 74 76 66 58 65 84 60 77 93 61 48 91 96 94 87 70 63 55 53
76 69 64 91 99 98 96 67 77 87 40 28 85 73 46 42 48 48 71 70 44 44 46 50 50 58 86 77 88 66 85 90 69 74 93 65 94 89 65 71 83 94 91 69 63 63 49
90 92 93 79 95 92 96 78 92 79 56 84 94 89 42 37 68 73 61 55 49 52 55 62 62 57 62 70 92 73 69 54 71 87 92 84 86 91 81 93 81 93 90 91 65 43 49
80 96 100 100 97 99 92 83 91 82 62 94 81 86 45 46 52 68 79 66 61 46 58 53 56 54 64 75 60 73 70 65 69 77 60 81 94 95 95 96 95 93 93 86 88 90 55
75 95 100 100 99 91 96 92 92 91 66 82 79 76 72 80 69 65 56 73 68 76 57 53 64 62 69 85 90 77 69 68 61 60 84 88 95 92 86 70 81 90 91 92 89 90 93
74 90 97 98 98 100 100 98 97 88 76 78 78 89 78 87 57 49 50 64 75 82 76 70 68 59 59 75 68 83 77 74 81 80 88 77 90 90 94 83 59 75 79 74 90 86 88
60 82 91 95 95 99 99 100 96 95 88 92 94 97 97 77 56 53 56 66 71 68 61 49 52 60 64 55 51 60 59 57 75 95 83 83 95 95 94 91 93 73 96 93 93 93 92
42 60 91 93 95 97 99 98 95 89 88 92 89 96 97 84 64 58 60 60 71 64 65 49 49 55 49 53 59 43 42 52 83 91 61 83 88 95 98 95 95 95 74 84 90 93 93
36 49 84 98 98 96 100 98 98 88 89 90 87 96 96 92 68 65 70 66 65 60 54 53 46 50 55 54 70 65 61 57 51 49 55 79 86 95 97 96 98 95 92 94 95 97 92
40 46 68 85 98 100 98 98 100 97 90 88 87 87 100 98 71 65 76 73 85 79 67 50 53 54 46 63 77 79 85 73 74 72 51 49 74 90 95 94 99 96 86 95 92 97 86
49 49 64 86 99 99 100 97 99 99 96 93 86 84 99 98 80 81 95 91 92 77 82 63 68 60 47 70 85 82 78 52 85 94 95 83 85 87 90 98 98 93 76 76 98 95 86
61 58 86 90 98 98 100 100 98 99 98 98 89 90 100 98 88 83 92 83 96 96 96 70 80 65 74 90 93 83 86 85 91 91 95 97 100 99 91 91 96 84 68 87 90 88 87
62 64 82 92 96 99 99 100 99 98 98 99 88 91 92 99 94 79 81 80 92 90 97 78 75 63 68 94 92 97 90 91 88 96 77 97 93 97 94 99 77 75 86 95 87 88 94
Wind_Speed
19 19 21 21 23 22 24 26 28 29 30 30 31 32 34 36 35 34 36 38 38 33 31 29 27 25 21 15 30 33 35 30 28 21 22 25 35 41 34 30 32 33 23 31 25 35 32
19 20 20 21 23 25 26 26 29 31 32 34 34 35 36 37 37 35 37 38 36 34 34 28 24 19 17 20 19 14 26 31 34 29 26 28 20 36 34 34 32 23 27 24 37 34 30
19 19 20 22 23 24 26 27 29 31 32 34 36 36 39 38 36 34 38 38 37 34 28 22 18 13 15 25 20 16 27 32 36 27 31 25 20 15 21 27 43 36 26 31 23 29 31
19 20 21 22 24 24 26 29 30 32 33 35 37 39 41 41 33 37 39 37 32 28 20 17 11 13 14 19 15 25 27 24 23 22 22 24 23 23 14 20 34 31 32 30 32 25 26
19 19 22 24 25 26 27 29 31 33 35 38 38 41 43 35 33 38 34 27 27 21 14 8 7 19 8 15 27 29 26 22 23 24 23 18 12 11 11 18 20 24 22 33 15 26 18
20 22 24 24 25 27 29 30 32 34 36 38 39 42 39 29 36 30 33 25 29 10 22 3 4 10 18 27 31 32 18 20 19 20 17 25 10 6 6 15 25 27 16 26 29 18 23
22 23 23 24 26 28 30 31 33 34 36 39 43 43 33 30 33 23 26 25 26 8 24 7 19 17 21 29 31 17 21 28 10 7 7 17 8 13 17 12 27 20 24 24 18 18 26
24 25 25 27 28 29 30 32 34 37 40 42 45 43 28 35 25 21 22 21 15 12 11 5 11 17 23 33 33 21 18 13 20 17 13 8 19 18 19 17 16 25 27 24 14 22 21
25 27 27 28 29 31 33 34 37 40 43 44 45 37 27 37 15 22 22 21 16 6 5 11 11 11 26 27 19 26 17 18 12 17 14 12 10 21 19 19 16 27 28 25 18 13 20
27 28 29 29 30 32 34 36 39 42 42 43 42 27 29 36 12 25 19 28 16 3 3 11 12 9 28 29 11 23 12 11 14 9 13 10 9 14 19 14 12 15 26 18 23 19 12
28 29 29 30 32 33 35 38 40 41 43 45 41 21 29 24 26 23 28 25 8 2 4 21 16 24 35 25 32 26 18 12 7 15 7 7 17 11 18 18 20 5 19 20 9 14 3
29 30 30 32 34 35 38 39 39 39 43 45 41 17 30 31 25 22 23 16 7 3 4 13 25 24 25 20 23 27 16 16 4 12 8 16 9 5 6 12 12 13 5 13 11 5 5
29 30 30 31 35 37 38 39 38 39 41 46 39 13 24 26 27 22 21 9 3 6 17 15 27 25 19 22 21 21 16 13 11 11 20 15 4 3 8 9 11 9 9 5 9 8 2
30 31 31 32 33 35 38 39 39 40 42 45 35 12 19 24 16 19 22 2 5 15 12 21 20 23 13 23 20 20 11 8 12 12 9 8 6 12 15 5 8 9 9 5 3 6 7
29 30 30 30 32 36 37 39 40 40 43 44 30 13 16 22 20 17 15 4 5 10 14 17 20 14 17 21 13 12 17 6 7 14 7 5 6 16 7 4 3 7 8 1 1 5 6
30 30 30 30 32 35 37 37 39 41 42 43 30 16 21 16 17 17 5 4 7 14 14 14 12 9 14 20 15 16 16 5 13 14 5 5 6 9 14 6 1 3 6 4 3 8 6
31 30 29 31 31 33 37 37 38 39 42 39 25 9 22 18 12 12 4 4 9 21 21 9 14 10 13 20 18 12 15 6 18 11 9 4 3 9 9 1 4 3 3 8 6 2 5
34 33 33 29 32 32 35 36 38 38 40 37 14 4 18 23 9 10 6 11 18 18 21 7 9 11 10 21 7 8 11 12 19 13 10 2 3 5 6 10 9 7 9 13 9 11 5
35 36 34 33 31 32 34 36 36 36 34 29 19 7 15 18 8 9 7 8 11 13 11 7 6 6 14 11 7 9 14 16 18 12 12 8 3 5 8 4 10 6 12 11 9 5 8
34 34 34 34 33 31 32 34 32 33 28 19 11 4 8 6 20 6 8 5 11 14 6 16 9 9 16 11 10 5 15 9 18 9 21 9 3 4 4 7 3 6 14 16 1 3 4
37 34 37 37 35 34 31 33 33 31 27 15 10 4 4 6 10 13 10 5 17 13 5 15 4 14 16 9 7 10 17 14 9 15 7 7 4 7 15 14 18 17 15 18 14 11 5
33 35 34 37 37 37 30 31 30 29 27 12 9 7 9 21 16 12 10 10 11 14 5 7 9 17 12 9 13 21 18 12 4 9 9 7 4 5 4 14 16 17 19 12 14 15 10
31 33 33 35 37 36 33 29 29 28 26 11 15 17 10 10 9 9 9 14 14 14 9 10 16 14 17 13 26 30 23 16 6 3 6 7 6 3 4 7 8 8 15 14 6 12 5
32 32 32 33 36 36 36 28 29 27 22 18 20 17 6 6 8 10 17 15 13 14 15 17 17 10 19 31 33 22 16 9 4 4 4 5 9 3 2 2 4 5 7 7 7 8 11
34 33 31 34 32 36 37 31 29 25 22 19 19 16 7 6 14 14 14 10 17 18 13 15 16 20 24 21 4 6 3 6 4 6 10 2 3 4 2 4 2 2 7 5 3 4 14
36 33 30 34 32 33 38 32 30 26 25 22 20 17 15 9 4 20 17 10 8 7 7 9 21 18 16 3 3 3 3 3 5 8 10 8 3 3 4 3 3 2 10 14 3 3 14
38 33 29 34 36 32 34 37 32 28 27 24 24 19 16 13 20 10 5 13 6 6 5 14 18 7 14 4 3 3 3 2 4 5 6 6 5 5 6 3 2 5 15 11 2 5 22
36 31 30 39 32 32 33 37 36 33 28 25 27 23 19 17 25 28 21 7 8 5 3 12 10 7 4 5 3 4 3 2 1 2 1 2 2 3 4 4 1 13 5 5 4 14 21
34 33 32 40 31 33 31 36 35 36 30 26 34 24 17 20 19 20 22 28 18 16 11 5 5 7 6 2 3 3 3 3 1 1 2 2 2 2 4 2 2 7 12 7 9 13 16
Wind_Direction
26 25 20 15 13 8 6 1 359 357 352 349 347 344 342 340 337 336 334 331 326 325 321 318 314 313 315 291 271 283 293 298 298 293 267 255 240 237 244 223 225 227 225 218 214 216 227
24 21 16 10 11 5 1 359 357 355 353 349 347 345 342 339 337 334 334 332 330 325 317 313 310 310 298 278 298 303 300 295 301 285 280 241 267 240 247 238 225 227 227 207 211 230 222
21 19 13 11 7 3 358 356 355 354 352 350 347 343 341 337 335 333 332 331 328 319 321 316 315 308 281 273 296 300 303 300 304 293 256 249 263 271 249 240 234 231 238 227 221 213 222
18 15 11 8 6 2 358 355 353 351 350 347 346 343 341 338 339 338 333 335 330 328 327 335 341 292 266 317 293 306 317 304 299 296 258 263 253 267 255 253 244 223 226 238 213 209 218
15 9 9 5 3 1 357 354 351 349 348 346 344 344 342 341 344 337 338 350 329 338 337 343 337 329 297 328 329 318 310 288 304 292 262 249 225 228 283 208 220 231 220 218 221 227 204
13 10 8 3 0 358 356 353 350 349 347 345 345 343 342 341 346 338 343 351 346 13 333 4 19 351 328 338 326 318 321 317 285 295 288 227 205 207 196 213 206 206 216 222 222 227 216
15 8 6 2 359 358 355 354 352 350 348 347 349 345 343 342 346 345 357 350 5 355 345 308 288 289 341 327 328 346 339 325 296 300 245 213 218 221 222 260 209 202 208 224 210 212 209
17 13 8 4 1 358 357 358 356 353 352 351 351 347 347 344 346 350 359 2 353 302 310 320 281 331 340 335 323 340 346 342 309 299 273 258 218 222 234 238 239 222 215 217 218 196 221
18 14 8 7 4 2 1 1 358 355 352 351 352 348 350 344 349 351 344 342 328 287 275 293 350 340 335 337 324 340 352 331 325 315 324 256 256 210 231 230 236 227 213 211 206 200 213
15 12 10 6 3 5 3 2 360 357 353 351 353 350 349 345 3 347 343 337 330 197 271 14 344 348 331 325 333 345 352 333 316 311 340 292 287 239 208 228 230 232 220 206 210 229 208
13 13 11 8 5 4 2 1 360 357 354 352 355 354 351 5 339 333 331 328 339 41 352 338 357 330 339 341 344 358 18 343 317 320 305 280 306 271 234 205 217 324 205 223 206 202 85
15 12 9 6 4 1 1 1 359 357 356 352 353 355 3 353 347 349 343 324 333 298 337 326 348 327 333 357 347 348 10 22 7 313 327 315 272 273 286 206 225 235 255 240 222 200 201
11 10 6 3 2 1 0 360 359 357 355 352 352 340 3 344 342 350 343 317 296 44 334 334 329 327 328 350 354 349 346 40 29 343 346 334 241 257 339 232 196 181 181 157 183 206 130
7 6 4 2 360 358 358 357 359 357 356 353 353 344 359 356 2 360 352 328 35 357 353 324 327 321 359 358 348 341 2 21 31 9 319 338 345 3 348 288 177 185 185 231 67 149 158
2 2 0 359 358 357 357 355 357 358 357 353 355 1 353 358 12 7 340 38 15 359 328 328 322 340 339 350 343 346 3 33 9 20 5 330 314 322 348 293 278 174 210 118 354 222 153
1 358 356 356 355 355 355 356 355 357 358 356 359 348 355 355 1 2 38 47 343 345 336 336 341 348 339 345 343 349 5 43 1 352 17 318 301 312 336 333 296 237 165 132 210 182 167
2 358 353 353 355 356 354 357 356 355 356 357 3 342 1 7 27 24 43 1 323 340 345 339 331 336 336 343 331 344 3 355 360 337 328 265 279 299 306 38 358 146 198 210 222 282 157
3 358 357 352 353 356 353 356 356 355 356 3 353 336 340 7 24 11 21 317 338 344 355 349 320 334 344 330 311 338 352 349 355 338 332 355 286 285 290 27 356 93 7 237 206 227 189
1 359 357 358 355 355 353 356 357 355 3 355 339 287 350 19 11 8 343 324 330 354 352 349 317 350 329 327 320 336 348 339 354 341 358 348 322 322 350 38 22 11 2 320 253 205 219
1 357 358 356 352 351 353 355 355 358 9 4 348 327 346 342 357 343 323 322 337 353 320 329 308 308 342 320 319 288 349 334 330 349 357 346 290 15 1 64 21 1 355 357 112 220 231
357 359 359 357 351 352 352 352 359 2 10 15 15 1 338 309 332 316 323 306 336 355 325 323 312 339 336 327 309 351 331 333 328 345 339 9 289 337 112 101 75 50 29 21 55 1 31
348 356 355 353 351 349 351 351 356 360 6 26 13 343 310 297 304 325 325 348 346 334 302 315 325 329 329 315 340 318 321 325 295 327 334 357 310 348 70 113 87 54 26 42 47 19 10
338 346 354 350 350 347 350 348 352 358 0 355 342 332 309 287 310 328 345 328 342 326 299 317 322 325 321 325 318 300 286 272 254 325 331 352 327 311 189 211 303 21 359 27 88 39 345
338 336 348 348 349 347 346 345 349 351 355 339 336 330 308 284 313 318 317 334 332 313 302 320 322 321 316 320 314 302 241 237 169 274 33 326 337 276 300 148 63 177 38 26 88 55 25
337 335 336 347 345 350 346 342 343 346 346 334 331 330 299 280 305 301 342 329 318 319 328 305 341 338 322 319 303 342 10 24 292 62 33 20 322 306 16 39 119 191 20 345 347 55 18
337 335 333 341 341 341 351 342 333 338 340 330 321 319 292 294 257 325 319 314 315 329 317 321 337 341 333 288 322 1 5 322 331 333 20 341 310 53 332 80 80 284 325 322 206 231 7
337 336 336 338 333 334 334 345 337 330 335 330 316 320 275 276 285 288 314 312 312 314 288 301 341 335 355 331 320 353 326 14 352 352 335 346 353 38 357 74 104 344 320 318 296 309 334
335 334 336 342 333 330 328 331 339 331 329 325 311 309 288 275 287 284 285 285 298 291 296 331 330 9 328 1 345 1 323 313 51 66 106 14 352 19 332 22 3 359 1 64 297 323 330
334 332 330 339 331 328 323 324 328 333 325 326 316 319 295 262 267 281 274 288 271 265 267 295 273 16 346 346 17 320 300 275 98 342 345 348 150 199 120 208 271 94 121 91 11 335 333